This demonstration page uses our WeatherBlox Daily Observations layout. Learn more.

39.92423, -83.80882

Hourly Observations for May 15, 2015

Temp ( °F °C ) Dew Point ( °F °C ) Humidity (%) Winds ( mph kmh ) Pressure ( in mb ) Visibility ( mi km ) Precip ( " mm )
12:56 am 00:56 Partly Cloudy 61 16.1 48 8.8 62 62 SE 6 9 30.19 1022 7 11.26538 0 0
1:56 am 01:56 Mostly Cloudy 61 16.1 48 8.8 62 62 SE 6 9 30.17 1022 7 11.26538 0 0
2:56 am 02:56 Partly Cloudy 60 15.5 48 8.8 65 65 SE 8 13 30.15 1021 7 11.26538 0 0.0254
3:56 am 03:56 Mostly Cloudy 60 15.5 48 8.8 65 65 SSE 6 9 30.14 1021 7 11.26538 0 0
4:56 am 04:56 Cloudy 60 15.5 48 8.8 65 65 SSE 8 13 30.14 1021 7 11.26538 0 0
5:56 am 05:56 Cloudy 60 15.5 49 9.4 67 67 SSE 9 15 30.13 1020 7 11.26538 0 0
6:56 am 06:56 Mostly Cloudy with Haze 61 16.1 50 10 67 67 S 6 9 30.13 1020 6 9.65604 0 0
7:56 am 07:56 Cloudy with Light Rain 61 16.1 56 13.3 84 84 NE 3 6 30.15 1021 5 8.0467 0.01 0.254
8:56 am 08:56 Cloudy with Haze 62 16.6 56 13.3 81 81 ENE 6 9 30.16 1021 5 8.0467 0 0.0254
9:56 am 09:56 Mostly Cloudy with Haze 65 18.3 57 13.8 75 75 SSE 8 13 30.14 1021 6 9.65604 0 0.0254
10:56 am 10:56 Hazy 74 23.3 60 15.5 62 62 SW 13 20 30.12 1020 5 8.0467 0 0
11:56 am 11:56 Hazy 80 26.6 60 15.5 51 51 WSW 18 30 30.13 1020 5 8.0467 0 0
12:56 pm 12:56 Hazy 81 27.2 60 15.5 49 49 WSW 15 24 30.12 1020 5 8.0467 0 0
1:56 pm 13:56 Hazy 78 25.5 60 15.5 54 54 SW 14 22 30.11 1020 6 9.65604 0 0
2:56 pm 14:56 Mostly Cloudy with Heavy Rain 72 22.2 65 18.3 79 79 W 12 19 30.12 1020 1.5 2.41401 0.02 0.508
3:09 pm 15:09 Mostly Cloudy with Light Rain 70 21 64 18 83 83 WNW 6 9 30.09 1019 3 4.82802 0.01 0.254
3:56 pm 15:56 Hazy 73 22.7 66 18.8 79 79 S 5 7 30.08 1019 5 8.0467 0.02 0.508
4:56 pm 16:56 Hazy 78 25.5 65 18.3 64 64 VRB 5 7 30.06 1018 5 8.0467 0 0
5:56 pm 17:56 Hazy 80 26.6 66 18.8 62 62 SSW 9 15 30.04 1017 5 8.0467 0 0
6:56 pm 18:56 Hazy 80 26.6 64 17.7 58 58 SW 10 17 30.05 1018 5 8.0467 0 0
7:56 pm 19:56 Hazy 78 25.5 65 18.3 64 64 SSW 8 13 30.04 1017 5 8.0467 0 0
8:56 pm 20:56 Hazy 74 23.3 64 17.7 71 71 S 5 7 30.06 1018 6 9.65604 0 0
9:56 pm 21:56 Hazy 73 22.7 64 17.7 73 73 S 7 11 30.07 1018 6 9.65604 0 0
10:56 pm 22:56 Hazy 72 22.2 64 17.7 76 76 S 8 13 30.08 1019 6 9.65604 0 0
11:56 pm 23:56 Hazy 72 22.2 64 17.7 76 76 S 7 11 30.08 1019 6 9.65604 0 0

Powered by AerisWeather